sat.trackr.live / text

‹ back to catalog

STARLINK-11650 [DTC]

NORAD 63312 · 2025-057F

PAYLOAD ACTIVE UNKNOWN

§ Identity

Operator
Country
US
Launch date
2025-03-18
Launch site
AFETR
Launch vehicle
Mass (kg)
RCS (m²)

Purposes: comms

External: N2YO · Heavens-Above · Gunter

§ Orbital elements

Epoch: 2026-09-20T18:03:27.522432Z

Period
91.67 min
Inclination
43.0000°
Eccentricity
0.0001859
Mean motion
15.70871631 rev/d
Perigee alt
355.2 km
Apogee alt
357.7 km
Semi-major
6,734.5 km
B*
1.2358e-3
RAAN
168.9596°
Arg perigee
260.3475°
Mean anomaly
99.7182°
Rev number
8,788

§ Raw data

STARLINK-11650 [DTC]1 63312U 25057F   26263.75240188  .00161454  00000+0  12358-2 0  99992 63312  43.0000 168.9596 0001859 260.3475  99.7182 15.70871631 87884

JSON: /api/v1/satellites/63312 · /tle

For live sub-satellite position, see the globe view (requires WebGL).

§ Visibility from observer

Set your observer location to see the next 7 days of passes ≥ 10°. The values pass through the URL so the page stays shareable.

No JS? Fill the form by hand. The geolocation button needs JavaScript.